Hourly Data Report for May 31, 2021

WIARTON A
ONTARIO
Current Station Operator: NAVCAN

44°44'39.000" N
81°06'31.000" W
221.90 m
6119499
71633
YVV

Download Data

Hourly Data (May 2021)
Hourly Data Report for May 31, 2021
TIME
LST
Temp Definition
°C
Dew Point Definition
°C
Rel Hum Definition
%
Precip. Amount Definition
mm

Wind Dir Definition
10's deg

Wind Spd Definition
km/h
Visibility Definition
km
Stn Press Definition
kPa
Hmdx Definition


Wind Chill Definition


Weather Definition


00:00 3.6 1.6 87   11 6 24.1 99.72     LegendNANA
01:00 2.9 1.6 91   12 10 24.1 99.69     Clear
02:00 3.2 2.2 93   12 5 24.1 99.71     LegendNANA
03:00 3.0 1.6 91   14 7 24.1 99.73     LegendNANA
04:00 3.5 2.1 90   18 4 24.1 99.74     Mainly Clear
05:00 6.4 2.7 77   20 8 24.1 99.79     LegendNANA
06:00 8.1 3.5 73   21 7 24.1 99.79     LegendNANA
07:00 10.1 5.0 70   25 5 24.1 99.81     Cloudy
08:00 12.2 4.7 60   22 12 24.1 99.83     LegendNANA
09:00 14.8 3.3 45   26 13 24.1 99.83     LegendNANA
10:00 15.8 5.2 49   25 15 24.1 99.80     Cloudy
11:00 15.8 5.1 49   28 12 24.1 99.79     LegendNANA
12:00 17.6 3.2 38   30 12 24.1 99.75     LegendNANA
13:00 18.8 4.0 37   28 11 24.1 99.68     Mostly Cloudy
14:00 19.2 2.1 32   28 12 24.1 99.66     LegendNANA
15:00 18.3 1.4 32   29 16 24.1 99.64     LegendNANA
16:00 18.9 1.0 30   27 16 24.1 99.63     Cloudy
17:00 18.8 2.0 32   25 9 24.1 99.60     LegendNANA
18:00 17.9 3.1 37   24 11 24.1 99.56     LegendNANA
19:00 16.8 3.0 39   24 5 24.1 99.54     Cloudy
20:00 16.2 3.4 42   23 4 24.1 99.54     LegendNANA
21:00 13.2 7.8 69   15 8 24.1 99.53     LegendNANA
22:00 14.3 5.8 56   18 11 24.1 99.50     Cloudy
23:00 15.6 4.5 47   20 18 24.1 99.44     LegendNANA

Notes on Data Quality.

Legend

  • E = Estimated
  • M = Missing
  • NA = Not Available*
  • [empty] = Indicates an unobserved value
Date modified: